Helicity
84 77 90 102 118 134 147 159 172 184 161 182 175 171 171 245 207 244 271 299 293 295
85 92 101 119 127 129 150 147 155 178 197 218 233 244 206 231 244 268 288 275 262 358
83 86 81 85 89 96 96 123 133 157 189 227 254 225 254 234 239 245 246 269 287 254
96 96 89 73 69 80 118 126 137 173 215 247 277 270 266 253 263 245 293 284 309 246
115 91 93 104 103 95 86 99 138 192 231 274 299 280 270 300 267 276 281 270 316 306
95 97 100 100 126 114 106 131 157 181 212 219 223 249 262 302 297 271 308 289 353 391
67 50 76 85 95 106 136 166 194 190 200 231 261 265 252 251 257 263 271 298 301 239
56 117 130 142 151 150 158 161 200 210 200 220 224 221 283 250 280 324 344 322 235 180
183 153 160 170 187 210 201 190 205 182 198 241 236 230 266 266 301 316 296 267 218 189
173 157 157 169 177 177 198 235 224 253 262 236 232 256 269 290 348 320 217 213 263 228
136 129 132 149 169 180 211 231 249 230 259 232 254 227 266 326 325 378 275 239 226 237
147 160 148 145 166 180 211 236 279 329 295 267 262 308 340 344 358 353 260 228 222 236
135 135 141 141 149 187 176 182 233 256 285 303 266 299 342 330 276 337 344 257 224 169
109 115 127 142 156 145 180 199 218 210 248 263 242 263 290 345 380 400 343 276 297 164
Wind_Speed
28 31 35 38 39 41 43 44 41 40 38 35 35 32 30 32 33 35 34 37 41 37
33 34 37 40 43 46 46 46 44 44 42 39 39 33 30 29 30 32 38 39 41 41
36 38 41 42 46 50 54 52 51 52 48 45 37 34 32 32 34 30 34 37 39 43
40 41 44 48 50 52 50 52 53 50 48 47 43 35 35 34 33 30 36 39 44 45
41 45 48 52 54 56 58 55 56 54 53 48 43 36 35 33 31 32 40 43 38 35
44 48 54 58 58 58 60 60 57 55 51 48 43 38 36 35 38 43 42 40 38 31
54 57 58 59 60 61 62 60 58 54 50 45 40 33 33 37 43 42 40 39 33 26
66 65 64 62 61 61 60 60 57 57 53 46 37 32 36 36 38 38 33 25 16 20
71 72 71 70 71 70 70 67 60 57 53 46 35 35 35 35 34 27 18 15 13 10
73 73 72 72 71 72 71 68 67 62 53 43 42 37 40 41 37 34 17 13 12 14
75 77 77 77 76 73 70 69 65 60 55 51 54 48 49 45 39 30 24 19 17 16
71 76 78 79 78 73 71 67 65 64 61 57 57 56 53 43 39 39 32 25 23 19
75 76 77 75 75 72 67 69 68 70 69 66 65 59 50 48 51 32 31 31 26 22
74 76 75 76 75 75 72 71 73 75 74 76 75 73 60 57 56 42 37 37 30 26
Wind_Direction
323 317 316 315 316 315 314 314 316 317 322 316 320 318 315 312 304 296 297 289 294 293
325 323 322 322 319 317 317 315 313 315 316 318 318 314 309 309 309 303 303 299 296 297
328 328 325 324 321 319 316 316 314 312 312 314 319 317 316 314 314 307 305 303 302 300
330 330 326 323 320 319 321 320 318 315 312 310 311 314 311 310 310 304 305 300 301 302
326 325 324 324 324 321 318 318 315 313 309 307 306 304 303 303 306 298 299 298 301 301
319 320 320 320 320 319 318 317 316 312 309 307 306 303 299 298 296 294 295 293 291 286
311 314 315 315 315 316 317 316 315 312 309 304 299 294 292 293 294 292 290 291 292 286
311 314 314 313 314 314 315 314 311 311 308 302 295 287 289 290 291 284 280 279 274 278
311 311 312 312 312 311 310 310 310 308 305 298 291 288 286 286 285 280 265 258 267 255
313 314 314 313 311 310 308 306 304 302 300 288 284 281 278 279 276 272 248 242 250 249
311 312 313 313 311 310 308 305 303 298 295 287 284 280 279 272 268 262 254 241 226 220
316 316 315 311 310 309 307 306 302 299 292 285 284 281 272 251 254 264 260 252 244 225
316 317 316 315 315 312 307 304 302 299 294 286 284 280 271 255 254 253 252 251 249 232
316 315 315 314 314 313 310 305 301 299 295 291 286 284 266 259 252 247 243 240 233 227